Terug naar catalogus

FLOCK 4G 7

ActiefWetenschapSSO
NORAD 62624·PAYLOAD·🇺🇸 United States

Gelanceerd Jan 14, 2025 vanaf Vandenberg Space Force Base

Loading…

Volgende Passages (komende 24 uur)

TLE

VersSource: CelesTrak SupGP

Epoch: Sep 14, 2026, 14:44 UTC

1 62624C 25009R   26257.61417824  .00008855  00000+0  29786-3 0  2578
2 62624  97.3890 338.4970 0002635  35.8129 100.8298 15.30850766    16

Volg FLOCK 4G 7 in realtime met AllMySat

Download on the App Store